Torna al catalogo

FALCON 9 R/B

AttivoVLEO
NORAD 61732·ROCKET BODY·🇺🇸 United States

Lanciato Oct 7, 2024 da Cape Canaveral Space Force Station

Loading…

Prossimi Passaggi (prossime 24 ore)

TLE

ObsoletoSource: Space-Track

Epoca: Oct 7, 2024, 14:59 UTC

1 61732U 24180B   24281.62491802 -.00000101  32184-6  00000-0 0  9990
2 61732  34.1400  34.7539 0027900 134.8400 359.2800 16.36805402    04

Traccia FALCON 9 R/B in tempo reale con AllMySat

Download on the App Store